sat.trackr.live / text

‹ back to catalog

COSMOS 2433 (720)

NORAD 32275 · 2007-052A

PAYLOAD ACTIVE UNKNOWN

§ Identity

Operator
Country
CIS
Launch date
2007-10-26
Launch site
TYMSC
Launch vehicle
Mass (kg)
RCS (m²)
5.09

Purposes: nav

External: N2YO · Heavens-Above · Gunter

§ Orbital elements

Epoch: 2026-09-19T05:40:28.574112Z

Period
675.73 min
Inclination
65.5186°
Eccentricity
0.0005551
Mean motion
2.13104383 rev/d
Perigee alt
19,115.5 km
Apogee alt
19,143.9 km
Semi-major
25,507.8 km
B*
0.0000e+0
RAAN
312.7646°
Arg perigee
227.5955°
Mean anomaly
132.4288°
Rev number
14,706

§ Raw data

COSMOS 2433 (720)1 32275U 07052A   26262.23644183 -.00000035  00000+0  00000+0 0  99992 32275  65.5186 312.7646 0005551 227.5955 132.4288  2.13104383147063

JSON: /api/v1/satellites/32275 · /tle

For live sub-satellite position, see the globe view (requires WebGL).

§ Visibility from observer

Set your observer location to see the next 7 days of passes ≥ 10°. The values pass through the URL so the page stays shareable.

No JS? Fill the form by hand. The geolocation button needs JavaScript.